User: anonymous   Login
Location: Pilipovskiye Korichintsy
(49.1833°N, 27.4667°E)
Time: 10:12:05
(UTC+00:00)
Language:

Resurs 1-4 Rocket - Orbit

View from above orbital plane
View from above orbital plane
View from above satellite
View from above satellite

Ground track
Ground track

The orbit data is extracted from the following two-line orbital elements,

1 25400U 98043G   20269.80885863 -.00000014 +00000-0 +12335-4 0  9994
2 25400 098.6114 203.9053 0010784 047.0152 313.1930 14.25460995155313
Epoch (UTC): 25 September 2020 19:24:45
Eccentricity: 0.0010784
inclination: 98.6114°
perigee height: 799 km
apogee height: 814 km
right ascension of ascending node: 203.9053°
argument of perigee: 47.0152°
revolutions per day: 14.25460995
mean anomaly at epoch: 313.1930°
orbit number at epoch: 15531

The dashed part of the orbit path shows where the satellite is in the earth's shadow,  

DLR